Regional Weather Roundup
Issued by NWS

Home | Current Version | Previous Version | Text Only | Print | Product List | Glossary On
Versions: 1 2 3 4 5 6 7 8 9 10 11 12 13 14 15 16 17 18 19 20 21 22 23 24 25 26 27 28 29 30 31 32 33 34 35 36 37 38 39 40 41 42 43 44 45 46 47 48 49 50
000
ASUS43 KLOT 051908
RWRIL

ILLINOIS REGIONAL WEATHER ROUNDUP
NATIONAL WEATHER SERVICE CHICAGO/ROMEOVILLE IL
200 PM CDT THU MAY 05 2016

NOTE: "FAIR" INDICATES FEW OR NO CLOUDS BELOW 12,000 FEET WITH NO
SIGNIFICANT WEATHER AND/OR OBSTRUCTIONS TO VISIBILITY.

* THESE STATIONS ARE NOT UNDER NWS QUALITY CONTROL. THEY ALSO MAY NOT
  REPORT WEATHER SUCH AS PRECIPITATION OR FOG.

ILZ001-002-007-009-015-016-024-052000-
NORTHWEST ILLINOIS

CITY           SKY/WX    TMP DP  RH WIND       PRES   REMARKS
MOLINE         SUNNY     64  39  39 NW10      30.03F
STERLING*      SUNNY     63  43  48 VRB7      30.03F
SAVANNA*       SUNNY     62  38  40 W7        30.03F
$$

ILZ003-004-008-010-011-017-018-052000-
NORTH CENTRAL ILLINOIS

CITY           SKY/WX    TMP DP  RH WIND       PRES   REMARKS
ROCKFORD       SUNNY     64  40  41 N12       30.04S
FREEPORT*      SUNNY     60  40  46 N3        30.04F
ROCHELLE*      SUNNY     61  44  54 N10       30.02S
DE KALB*       SUNNY     61  46  56 N12       30.01F
$$

ILZ005-006-012>014-019>023-052000-
NORTHEAST ILLINOIS

CITY           SKY/WX    TMP DP  RH WIND       PRES   REMARKS
CHICAGO-OHARE  SUNNY     61  43  51 NE12      29.99F
CHICAGO-MIDWAY SUNNY     60  40  47 N13G20    30.00F
AURORA         SUNNY     63  46  54 N9G20     30.00F
LANSING*       SUNNY     51  42  71 N14       30.01S
JOLIET*        SUNNY     64  45  50 N10       29.99S
WAUKEGAN       SUNNY     57  43  59 NE9       30.00S
DUPAGE AIRPORT SUNNY     63  44  50 N9        29.99F
KANKAKEE*      SUNNY     61  43  51 N10G17    29.99S
WHEELING       SUNNY     58  41  53 NE9       30.01
MORRIS*        SUNNY     64  44  49 N8        29.98F
ROMEOVILLE*    SUNNY     62  43  49 N7        29.99F
NORTHERLY ISL    N/A     49  40  71 MISG        N/A
NORTHERLY ISL    N/A     49  40  71 MISG        N/A
$$

LMZ740>746-052000-
SOUTHERN LAKE MICHIGAN

STATION/POSITION SKY/WX   TEMP    WIND        PRES    VSBY  WAVE
                          AIR SEA DIR/SP/G                  HT/PER
                          (F)     (DEG/KT/KT) (MB)    (MI)  (FT/S)
SOUTHERN BUOY              40 40  350/ 14/ 16 1016.0F         4/ 6
WILMETTE HARBOR            43 43   60/ 14/ 17   N/A           4/ 6
HARRISON CRIB              44     350/ 16/ 17   N/A
BURNHAM HARBOR             49      20/  9/ 15   N/A
CALUMET HARBOR             47                 1016.2F
BURNS HARBOR               42     350/ 11/ 15 1016.9F
MICHIGAN CITY              42     310/ 11/ 12   N/A
ST. JOSEPH                 43 47                N/A           4/ 5
$$

ILZ025>027-034>036-040-047-049-050-058-095>099-052000-
WEST-CENTRAL ILLINOIS

CITY           SKY/WX    TMP DP  RH WIND       PRES   REMARKS
QUINCY         SUNNY     62  42  47 VRB6      30.05F
GALESBURG*     SUNNY     62  42  47 NW6       30.04S
MACOMB*        SUNNY     63  37  37 N10G17    30.06S
JACKSONVILLE*  SUNNY     63  41  44 NW8       30.03S
PITTSFIELD*    SUNNY     63  42  45 N9        30.05S
$$

ILZ028>032-037-038-041>044-048-051>054-059>061-052000-
CENTRAL ILLINOIS

CITY           SKY/WX    TMP DP  RH WIND       PRES   REMARKS
PONTIAC        MOSUNNY   64  46  52 NW12G18   30.00S
BLOOMINGTON    MOSUNNY   64  47  54 N14       30.00F
DECATUR        MOSUNNY   64  47  53 N15G23    29.99F
PEORIA         SUNNY     64  44  48 NE8       30.02F
LACON*         SUNNY     61  45  54 N7        30.01F
LINCOLN*       MOSUNNY   64  47  54 N10G16    30.00F
SPRINGFIELD    MOSUNNY   65  45  48 N10G20    30.02F
TAYLORVILLE    PTSUNNY   62  44  52 N13G20    30.01S
$$

ILZ033-039-045-046-055>057-062-063-052000-
EAST-CENTRAL ILLINOIS

CITY           SKY/WX    TMP DP  RH WIND       PRES   REMARKS
CHAMPAIGN      MOSUNNY   66  45  46 N16G26    29.96F
RANTOUL*       MOSUNNY   65  44  46 N15G21    29.97S
MATTOON        PTSUNNY   61  45  55 N17G24    29.96F
PARIS*         MOSUNNY   61  48  62 N8        29.96S
$$

ILZ079-100>102-052000-
SOUTHWEST ILLINOIS

CITY           SKY/WX    TMP DP  RH WIND       PRES   REMARKS
ALTON          CLOUDY    59  43  55 N10G17    30.03F
BELLEVILLE     PTSUNNY   61  46  56 N8        30.02S
CAHOKIA*       PTSUNNY   63  43  48 N15       30.03S
SPARTA*        PTSUNNY   59  46  61 N10G21    30.03S
$$

ILZ064>066-069>071-074>076-080>082-084>086-088>090-092>094-052000-
SOUTH-CENTRAL ILLINOIS

CITY           SKY/WX    TMP DP  RH WIND       PRES   REMARKS
CARBONDALE     PTSUNNY   59  43  55 N13       30.00S
CAIRO*         PTSUNNY   62  43  49 N18       29.98R
EFFINGHAM*     CLOUDY    59  49  70 NW7       30.00S
MARION         PTSUNNY   59  45  58 N14       30.00S
MT. VERNON     CLOUDY    55  43  62 NW7       30.01S
CENTRALIA*     CLOUDY    58  47  66 NW10      30.00F
SALEM*         CLOUDY    58  45  61 NW14      30.00F
METROPOLIS*    CLOUDY    58  45  60 N10G20    29.99S
$$

ILZ067-068-072-073-078-083-087-091-052000-
SOUTHEAST ILLINOIS

CITY           SKY/WX    TMP DP  RH WIND       PRES   REMARKS
LAWRENCEVILLE  PTSUNNY   58  46  64 NW15G22   29.97S
FLORA*         CLOUDY    59  46  60 N12       29.99S
FAIRFIELD*     CLOUDY    57  45  64 N9        29.98S
HARRISBURG*    PTSUNNY   58  44  59 N15       29.99S
ROBINSON*      PTSUNNY   57  47  70 N7        29.96F
CARMI*         CLOUDY    56  46  67 NW16      29.97F
$$

ABBREVIATIONS USED IN REMARKS
   TC - TEMPERATURE IN CELSIUS
  WCI - WIND CHILL INDEX
   HX - HEAT INDEX
  VSB - VISIBILITY
$$





USA.gov is the U.S. government's official web portal to all federal, state and local government web resources and services.